Location: Antin
(43.3330°N, 0.2804°E)
Time: 23:46:49
(UTC+00:00)

HJ-1C - Pass Details

Date: 16 October 2021
Orbit: 422 x 433 km, 97.1° (Epoch: 04 December)

Event Time Altitude Azimuth Distance (km) Brightness Sun altitude
Exits shadow 18:49:04 36° 155° (SSE) 687 4.0 -18.0°
Maximum altitude 18:50:14 76° 77° (ENE) 442 3.1 -18.2°
Drops below altitude 10° 18:53:29 10° 351° (N) 1,523 6.2 -18.8°
Sets 18:55:30 0° 350° (N) 2,396 7.3 -19.2°
